Voltar ao catálogo

STARLINK-5403

AtivoComunicaçõesVLEO
NORAD 54862·PAYLOAD·🇺🇸 United States

Lançado Dec 28, 2022 de Cape Canaveral Space Force Station

Loading…

Próximas Passagens (próximas 24 horas)

TLE

AtualizadoSource: CelesTrak SupGP

Época: Sep 14, 2026, 20:59 UTC

1 54862C 22177AU  26257.87479167 -.00033505  00000+0 -12138-2 0  2576
2 54862  42.9996 133.1406 0001239 258.5464 133.7469 15.27587919    11

Acompanhe STARLINK-5403 em tempo real com AllMySat

Download on the App Store